Regional Weather Roundup
Issued by NWS

Home | Current Version | Previous Version | Text Only | Print | Product List | Glossary Off
Versions: 1 2 3 4 5 6 7 8 9 10 11 12 13 14 15 16 17 18 19 20 21 22 23 24 25 26 27 28 29 30 31 32 33 34 35 36 37 38 39 40 41 42 43 44 45 46 47 48 49 50

000
ASUS43 KTOP 180059
RWRKS

WEATHER ROUNDUP FOR KANSAS
NATIONAL WEATHER SERVICE GOODLAND KS
800 PM CDT THU APR 17 2014

NOTE:  "FAIR" INDICATES FEW OR NO CLOUDS BELOW 12,000 FEET WITH NO
SIGNIFICANT WEATHER AND/OR OBSTRUCTIONS TO VISIBILITY.

KSZ001>006-013>018-027>032-041>047-180200-
NORTHWEST KANSAS

CITY           SKY/WX    TMP DP  RH WIND       PRES   REMARKS
GOODLAND       CLEAR     51  38  60 S18       30.13F
HAYS           CLEAR     54  30  40 SE6       30.21S
HILL CITY      CLEAR     56  30  37 S9        30.18F
RUSSELL        CLEAR     50  31  48 E6        30.20S
$$

KSZ061>065-074>080-084>089-180200-
SOUTHWEST KANSAS

CITY           SKY/WX    TMP DP  RH WIND       PRES   REMARKS
DODGE CITY     PTCLDY    49  39  68 S6        30.22S
ELKHART          N/A     49  35  58 SE9         N/A
GARDEN CITY    MOCLDY    48  41  76 S12       30.21S
GREAT BEND     CLEAR     52  30  43 S8        30.21S
LIBERAL        PTCLDY    48  37  66 SE7       30.24R
$$

KSZ066>073-081>083-090>101-180200-
SOUTHEAST KANSAS

CITY           SKY/WX    TMP DP  RH WIND       PRES   REMARKS
CHANUTE        CLOUDY    44  36  73 N5        30.26F
COFFEYVILLE    CLOUDY    47  40  76 N6        30.25F
HUTCHINSON     CLEAR     49  32  52 SE6       30.23S
NEWTON         CLEAR     45  30  57 SE6       30.28R
PARSONS        CLOUDY    47  38  71 N5        30.26F
WICHITA INTL   PTCLDY    48  36  63 E6        30.24R
WICHITA JABRA  CLEAR     46  36  68 E6        30.24S
WINFIELD       PTCLDY    47  35  63 E6        30.25S HAZE
$$

KSZ007>012-019>026-033>040-048>060-102>105-180200-
NORTHEAST KANSAS

CITY           SKY/WX    TMP DP  RH WIND       PRES   REMARKS
CONCORDIA      CLEAR     51  27  39 SE5       30.22S
EMPORIA        MOCLDY    44  32  62 SE8       30.26S HAZE
LAWRENCE       PTCLDY    46  34  62 SE6       30.27S
MANHATTAN      MOCLDY    52  33  48 SE8       30.24S HAZE
OLATHE IND     CLOUDY    44  35  70 S7        30.28S
OLATHE EXE     PTCLDY    44  33  65 SE3       30.26F
SALINA         CLEAR     53  30  41 SE5       30.23S
TOPEKA BILLARD PTCLDY    50  33  52 SE5       30.27R
TOPEKA FORBES  PTCLDY    47  33  58 SE8       30.26S HAZE
$$



USA.gov is the U.S. government's official web portal to all federal, state and local government web resources and services.